COSMOS 1275 DEB, 14408

Orbit data source: Space-Track

COSMOS 1275 DEB, 14408 is space debris in LEO originally from a launch on Thu, 04 Jun 1981 UTC launched from the Plesetsk Missile And Space Complex (PKMTR). Debris objects in space refer to the collection of defunct objects orbiting the Earth. Examples of debris include non-operational satellites, rocket bodies, and fragments generated from explosions, collisions, or faulty payload assembly.

Loading next visibility...
Identifier
14408, 1981-053JD
Orbit
LEO
Country
Flag of CISCIS
Related business
Manufacturer
Unknown
Mission
Spacecraft
Bus & Motor
Unknown
Mass
Unknown
Launch date (UTC)
1981-06-04 (45 years ago)
Launch vehicle
Unknown
Launch site
Plesetsk Missile And Space Complex (PKMTR)
Object type
Payload
Rocket body
Debris
Shape & HBR
Unknown shape, 0.1 m
Radar Cross Section
Small (<0.1 m²)

Expand to show TLE details & history
Last TLE update: 3 weeks ago

TLE from 3 weeks ago
0 COSMOS 1275 DEB
1 14408U 81053JD  26101.75920389  .00000978  00000-0  99402-3 0  9998
2 14408  82.9621 221.5126 0115488 212.8607 303.5859 13.73070614694340
Epoch: 2026-04-11T18:13Z
TLE epoch observation values (Epoch: 2026-04-11T18:13:15.216Z)
Latitude
24.49246°
Longitude
-74.982°
Altitude
945.14 km
Speed
7.404 km/s
True Right ascension
02h 33m 13s
True Declination
24° 21' 59"
Sunlit
Object was in daylight at epoch
Visualization orbit readout
Latitude
Unknown
Longitude
Unknown
Altitude
Unknown
Speed
Unknown
Apparent Right ascension
Unknown
Apparent Declination
Unknown
Sunlit
N/A
Visualization observer readout
Local Sidereal Time
10:29:18
Azimuth
Unknown
Elevation
Unknown
Doppler factor
Unknown
Orbital elements
Apogee altitude
1,070.762 km
Perigee altitude
900.674 km
Semi-major axis
7,363.855 km
Eccentricity
0.01155
Inclination
82.9621°
RAAN
221.5126°
Arg. of periapsis
212.8607°
True anomaly
302.47463°
Mean anomaly
303.5859°
Eccentric anomaly
303.03115°
Mean motion
3.43467 °/min
Orbital period
104.81 mins
BSTAR
0.00099402
Loading maneuver chart data...
Computing Atmospheric mass density...
Loading historical data...
Loading historical data...
Loading historical data...
Loading historical data...
Loading historical data...
Loading historical data...
Loading historical data...

Documentation

Showing up to 5 results
|